Deptford, New Jersey, United States
Lat: 39.83N, Lon: 75.13W
Wx Zone: NJZ017
Local Info
Past Weather Observations for Wednesday, July 22, 2015

NOTE: This archive is for the closest National Weather Service station to Deptford. Information may differ from the station used for current weather conditions.

Click here for Long-term Archive

Time Weather Temperature Dewpoint Humidity Pressure Winds Precip Visibility
23:54
Overcast
75°F / 24°C 54°F / 12°C 47% 29.92 in
(1013 mb)
NW 6.9 mph
(NW 11 kph)
- 10SM
22:54
Mostly Cloudy
75°F / 24°C 54°F / 12°C 47% 29.92 in
(1013 mb)
WNW 5.8 mph
(WNW 9 kph)
- 10SM
21:54
Mostly Cloudy
77°F / 25°C 54°F / 12°C 44% 29.92 in
(1013 mb)
NW 4.6 mph
(NW 7 kph)
- 10SM
20:54
Mostly Cloudy
79°F / 26°C 54°F / 12°C 42% 29.89 in
(1012 mb)
NW 8.1 mph
(NW 13 kph)
- 10SM
19:54
Mostly Cloudy
81°F / 27°C 54°F / 12°C 39% 29.86 in
(1011 mb)
NW 9.2 mph
(NW 15 kph)
- 10SM
18:54
Mostly Cloudy
82°F / 28°C 54°F / 12°C 37% 29.86 in
(1011 mb)
NW 12.7 mph
(NW 20 kph)
- 10SM
17:54
Partly Cloudy
84°F / 29°C 54°F / 12°C 35% 29.83 in
(1010 mb)
NW 11.5 mph
(NW 19 kph)
- 10SM
16:54
Partly Cloudy
84°F / 29°C 54°F / 12°C 35% 29.8 in
(1009 mb)
WNW 16.1 mph
(WNW 26 kph)
- 10SM
15:54
Partly Cloudy
84°F / 29°C 54°F / 12°C 35% 29.8 in
(1009 mb)
W 15 mph
(W 24 kph)
- 10SM
14:54
Partly Cloudy
84°F / 29°C 54°F / 12°C 35% 29.8 in
(1009 mb)
WNW 16.1 mph
(WNW 26 kph)
- 10SM
13:54
Partly Cloudy
84°F / 29°C 54°F / 12°C 35% 29.83 in
(1010 mb)
W 13.8 mph
(W 22 kph)
- 10SM
12:54
Partly Cloudy
82°F / 28°C 54°F / 12°C 37% 29.83 in
(1010 mb)
W 10.4 mph
(W 17 kph)
- 10SM
11:54
Partly Cloudy
82°F / 28°C 52°F / 11°C 35% 29.83 in
(1010 mb)
NW 15 mph
(NW 24 kph)
- 10SM
10:54
Partly Cloudy
81°F / 27°C 54°F / 12°C 39% 29.83 in
(1010 mb)
NNW 10.4 mph
(NNW 17 kph)
- 10SM
09:54
Clear
79°F / 26°C 54°F / 12°C 42% 29.83 in
(1010 mb)
NW 11.5 mph
(NW 19 kph)
- 10SM
08:54
Clear
79°F / 26°C 54°F / 12°C 42% 29.83 in
(1010 mb)
N 10.4 mph
(N 17 kph)
- 10SM
07:54
Clear
75°F / 24°C 55°F / 13°C 50% 29.83 in
(1010 mb)
NNW 10.4 mph
(NNW 17 kph)
- 10SM
06:54
Clear
72°F / 22°C 55°F / 13°C 57% 29.83 in
(1010 mb)
NW 8.1 mph
(NW 13 kph)
- 10SM
05:54
Clear
72°F / 22°C 57°F / 14°C 61% 29.8 in
(1009 mb)
NW 6.9 mph
(NW 11 kph)
- 10SM
04:54
Clear
72°F / 22°C 61°F / 16°C 69% 29.77 in
(1008 mb)
NW 5.8 mph
(NW 9 kph)
- 10SM
03:54
Clear
72°F / 22°C 61°F / 16°C 69% 29.77 in
(1008 mb)
NW 6.9 mph
(NW 11 kph)
- 10SM
02:54
Clear
72°F / 22°C 63°F / 17°C 73% 29.74 in
(1007 mb)
NW 8.1 mph
(NW 13 kph)
- 10SM
01:54
Partly Cloudy
73°F / 23°C 63°F / 17°C 69% 29.74 in
(1007 mb)
NW 6.9 mph
(NW 11 kph)
- 10SM
00:54
Partly Cloudy
73°F / 23°C 63°F / 17°C 69% 29.74 in
(1007 mb)
NNW 9.2 mph
(NNW 15 kph)
- 10SM
Time Weather Temperature Dewpoint Humidity Pressure Winds Precip Visibility


Weather for websites

WeatherForYou.com, LLC is not responsible for any damages or problems caused by this service. Current weather conditions are obtained from the closest station including government and personal stations which may have varying degrees of accuracy. Weather forecasts are derived from the NOAA NDFD. Like all things, this site belongs to Jesus Christ... He just trusts us to maintain it. If you have any questions or comments email webmaster@weatherforyou.com

Copyright © 2015, WeatherForYou.com LLC. All rights reserved.